NSZ2616 EFHK-ESSA

Flight info

Callsign NSZ2616
Flight time 0h 47m
Altitude 34000
Route ADIVO Y365 POGOK DCT RUNGA N872 XILAN
Aircraft B738/M-SDE3GHIJ1LRWXY/SB1

Departure

Time 2026-04-26 16:47
Airport Helsinki Vantaa Airport (EFHK)

Arrival

Time 2026-04-26 17:34
Airport Stockholm-Arlanda Airport (ESSA)
Time Latitude Longitude Altitude Speed Heading
2026-04-26 16:23 60.32104 24.96754 168 ft 0 kts 312°
2026-04-26 16:42 60.32104 24.96753 141 ft 1 kts 312°
2026-04-26 16:42 60.32131 24.96694 167 ft 9 kts 311°
2026-04-26 16:42 60.32132 24.96599 166 ft 7 kts 240°
2026-04-26 16:42 60.32121 24.96482 165 ft 13 kts 289°
2026-04-26 16:43 60.32091 24.96318 164 ft 13 kts 228°
2026-04-26 16:43 60.32019 24.96158 162 ft 18 kts 227°
2026-04-26 16:43 60.31923 24.95943 161 ft 23 kts 228°
2026-04-26 16:43 60.31806 24.95686 159 ft 26 kts 227°
2026-04-26 16:44 60.31684 24.95413 158 ft 25 kts 228°
2026-04-26 16:44 60.31568 24.95172 156 ft 23 kts 227°
2026-04-26 16:44 60.31462 24.94934 155 ft 22 kts 227°
2026-04-26 16:44 60.31359 24.94703 153 ft 22 kts 228°
2026-04-26 16:45 60.31262 24.94489 152 ft 9 kts 228°
2026-04-26 16:45 60.31233 24.94424 151 ft 2 kts 228°
2026-04-26 16:45 60.31195 24.94339 151 ft 15 kts 228°
2026-04-26 16:45 60.31103 24.94133 150 ft 22 kts 229°
2026-04-26 16:46 60.31035 24.93914 148 ft 18 kts 274°
2026-04-26 16:46 60.31113 24.93728 146 ft 18 kts 346°
2026-04-26 16:46 60.31202 24.93795 147 ft 5 kts 41°
2026-04-26 16:46 60.31204 24.93798 147 ft 0 kts 41°
2026-04-26 16:47 60.31400 24.94209 151 ft 88 kts 47°
2026-04-26 16:47 60.31976 24.95542 236 ft 160 kts 45°
2026-04-26 16:47 60.32729 24.97368 943 ft 189 kts 43°
2026-04-26 16:48 60.33648 24.99240 2000 ft 191 kts 37°
2026-04-26 16:48 60.34577 25.01195 2865 ft 196 kts 40°
2026-04-26 16:48 60.35508 25.03248 3632 ft 203 kts 40°
2026-04-26 16:48 60.36541 25.05519 3950 ft 236 kts 41°
2026-04-26 16:49 60.37668 25.08016 4834 ft 244 kts 41°
2026-04-26 16:49 60.38813 25.10558 5880 ft 245 kts 39°
2026-04-26 16:49 60.40199 25.12392 6847 ft 237 kts 13°
2026-04-26 16:49 60.41820 25.12707 7750 ft 238 kts 348°
2026-04-26 16:50 60.43363 25.11412 8633 ft 244 kts 326°
2026-04-26 16:50 60.44533 25.08872 9605 ft 253 kts 303°
2026-04-26 16:50 60.45101 25.05398 10320 ft 275 kts 280°
2026-04-26 16:50 60.44947 25.01294 10550 ft 309 kts 266°
2026-04-26 16:51 60.44508 24.96918 11125 ft 324 kts 263°
2026-04-26 16:51 60.44000 24.92426 11927 ft 330 kts 262°
2026-04-26 16:51 60.43470 24.87861 12779 ft 335 kts 262°
2026-04-26 16:51 60.42933 24.83227 13616 ft 341 kts 262°
2026-04-26 16:52 60.42397 24.78544 14370 ft 345 kts 262°
2026-04-26 16:52 60.42040 24.75400 14914 ft 347 kts 262°
2026-04-26 16:52 60.41318 24.69006 15994 ft 351 kts 262°
2026-04-26 16:52 60.40774 24.64158 16777 ft 355 kts 262°
2026-04-26 16:53 60.40227 24.59268 17553 ft 359 kts 262°
2026-04-26 16:53 60.39673 24.54321 18298 ft 362 kts 262°
2026-04-26 16:53 60.39114 24.49334 18948 ft 366 kts 262°
2026-04-26 16:53 60.38547 24.44288 19606 ft 370 kts 262°
2026-04-26 16:54 60.37992 24.39364 20243 ft 373 kts 262°
2026-04-26 16:54 60.37412 24.34229 20900 ft 377 kts 262°
2026-04-26 16:54 60.36824 24.29050 21549 ft 380 kts 262°
2026-04-26 16:54 60.36228 24.23817 22169 ft 384 kts 262°
2026-04-26 16:55 60.35645 24.18714 22731 ft 387 kts 264°
2026-04-26 16:55 60.35035 24.13401 23385 ft 389 kts 264°
2026-04-26 16:55 60.34419 24.08060 23890 ft 392 kts 264°
2026-04-26 16:55 60.33797 24.02685 24413 ft 393 kts 265°
2026-04-26 16:56 60.32552 23.92029 25783 ft 388 kts 265°
2026-04-26 16:56 60.31930 23.86732 26366 ft 388 kts 265°
2026-04-26 16:56 60.31316 23.81505 26925 ft 388 kts 266°
2026-04-26 16:57 60.30692 23.76208 27532 ft 388 kts 266°
2026-04-26 16:57 60.30066 23.70929 28160 ft 386 kts 266°
2026-04-26 16:57 60.28816 23.60426 29361 ft 386 kts 266°
2026-04-26 16:58 60.28179 23.55102 29889 ft 387 kts 266°
2026-04-26 16:58 60.27760 23.51591 29861 ft 391 kts 266°
2026-04-26 16:59 60.25641 23.34100 29855 ft 382 kts 267°
2026-04-26 17:00 60.23109 23.13457 29911 ft 379 kts 267°
2026-04-26 17:00 60.21194 22.97999 29909 ft 379 kts 268°
2026-04-26 17:01 60.19899 22.87637 29923 ft 380 kts 268°
2026-04-26 17:01 60.18636 22.77614 29927 ft 380 kts 268°
2026-04-26 17:02 60.17332 22.67337 29936 ft 380 kts 268°
2026-04-26 17:02 60.16019 22.57068 29916 ft 380 kts 268°
2026-04-26 17:03 60.14701 22.46849 29918 ft 376 kts 269°
2026-04-26 17:03 60.13390 22.36731 29939 ft 374 kts 269°
2026-04-26 17:04 60.12079 22.26672 29940 ft 372 kts 269°
2026-04-26 17:04 60.10764 22.16640 29947 ft 372 kts 269°
2026-04-26 17:05 60.09442 22.06616 29949 ft 372 kts 269°
2026-04-26 17:05 60.08108 21.96582 29927 ft 372 kts 269°
2026-04-26 17:06 60.06790 21.86739 29953 ft 372 kts 269°
2026-04-26 17:06 60.05447 21.76766 29965 ft 371 kts 269°
2026-04-26 17:07 60.04326 21.68493 29936 ft 369 kts 269°
2026-04-26 17:07 60.02748 21.56925 29973 ft 372 kts 269°
2026-04-26 17:08 60.01597 21.48408 29990 ft 389 kts 268°
2026-04-26 17:08 60.00139 21.37727 29994 ft 408 kts 268°
2026-04-26 17:09 59.98885 21.28684 29994 ft 421 kts 267°
2026-04-26 17:09 59.97014 21.15340 29994 ft 437 kts 266°
2026-04-26 17:10 59.95348 21.03601 29984 ft 441 kts 266°
2026-04-26 17:10 59.93666 20.91845 29917 ft 440 kts 266°
2026-04-26 17:11 59.91985 20.80137 29994 ft 438 kts 266°
2026-04-26 17:11 59.90293 20.68406 30007 ft 437 kts 265°
2026-04-26 17:12 59.87765 20.50999 30014 ft 436 kts 265°
2026-04-26 17:13 59.85221 20.33674 30007 ft 434 kts 265°
2026-04-26 17:13 59.83546 20.22428 28500 ft 428 kts 265°
2026-04-26 17:14 59.82702 20.16721 27534 ft 430 kts 265°
2026-04-26 17:14 59.80998 20.05290 25580 ft 433 kts 264°
2026-04-26 17:14 59.80139 19.99593 24868 ft 428 kts 264°
2026-04-26 17:15 59.78437 19.88395 23515 ft 419 kts 264°
2026-04-26 17:15 59.77597 19.82877 22728 ft 416 kts 263°
2026-04-26 17:15 59.76792 19.77601 22064 ft 410 kts 263°
2026-04-26 17:16 59.75969 19.72218 21393 ft 406 kts 263°
2026-04-26 17:16 59.75151 19.66879 20709 ft 402 kts 263°
2026-04-26 17:16 59.74340 19.61599 20051 ft 400 kts 263°
2026-04-26 17:16 59.73524 19.56271 19400 ft 409 kts 262°
2026-04-26 17:17 59.72692 19.50853 18719 ft 411 kts 262°
2026-04-26 17:17 59.71855 19.45468 17998 ft 407 kts 261°
2026-04-26 17:17 59.71024 19.40162 17268 ft 401 kts 261°
2026-04-26 17:17 59.70203 19.34928 16603 ft 394 kts 261°
2026-04-26 17:18 59.69396 19.29787 15953 ft 388 kts 260°
2026-04-26 17:18 59.68602 19.24732 15318 ft 383 kts 259°
2026-04-26 17:18 59.67819 19.19746 14684 ft 379 kts 259°
2026-04-26 17:18 59.67041 19.14804 14076 ft 375 kts 258°
2026-04-26 17:19 59.65510 19.05068 12710 ft 366 kts 259°
2026-04-26 17:19 59.64808 19.00190 12174 ft 361 kts 260°
2026-04-26 17:19 59.64141 18.95420 11480 ft 359 kts 259°
2026-04-26 17:20 59.63489 18.90779 11145 ft 347 kts 259°
2026-04-26 17:20 59.63055 18.87724 11026 ft 337 kts 259°
2026-04-26 17:20 59.62236 18.81980 10827 ft 319 kts 259°
2026-04-26 17:20 59.61638 18.77810 10537 ft 314 kts 259°
2026-04-26 17:21 59.61040 18.73642 10160 ft 318 kts 259°
2026-04-26 17:21 59.60432 18.69427 9769 ft 321 kts 259°
2026-04-26 17:21 59.59815 18.65191 9344 ft 321 kts 258°
2026-04-26 17:21 59.59197 18.60976 8938 ft 319 kts 258°
2026-04-26 17:22 59.58578 18.56774 8530 ft 318 kts 258°
2026-04-26 17:22 59.57961 18.52583 8129 ft 317 kts 258°
2026-04-26 17:22 59.57344 18.48394 8076 ft 316 kts 258°
2026-04-26 17:22 59.56745 18.44368 8054 ft 294 kts 258°
2026-04-26 17:23 59.56192 18.40664 8048 ft 270 kts 258°
2026-04-26 17:23 59.55681 18.37230 8057 ft 255 kts 259°
2026-04-26 17:23 59.55190 18.33899 8066 ft 252 kts 259°
2026-04-26 17:23 59.54698 18.30566 8079 ft 254 kts 259°
2026-04-26 17:24 59.54121 18.27257 8081 ft 260 kts 251°
2026-04-26 17:24 59.53223 18.24099 8078 ft 266 kts 240°
2026-04-26 17:24 59.51892 18.21569 8060 ft 273 kts 211°
2026-04-26 17:24 59.50069 18.20432 8080 ft 278 kts 198°
2026-04-26 17:25 59.48169 18.19520 7649 ft 283 kts 198°
2026-04-26 17:25 59.46268 18.18606 7373 ft 277 kts 197°
2026-04-26 17:25 59.44428 18.17731 7097 ft 268 kts 198°
2026-04-26 17:25 59.42648 18.16892 6835 ft 259 kts 197°
2026-04-26 17:26 59.40917 18.16076 6565 ft 253 kts 197°
2026-04-26 17:26 59.39229 18.15279 6283 ft 246 kts 197°
2026-04-26 17:26 59.37635 18.14298 5986 ft 236 kts 217°
2026-04-26 17:26 59.36627 18.11996 5722 ft 218 kts 258°
2026-04-26 17:27 59.36519 18.09146 5506 ft 207 kts 278°
2026-04-26 17:27 59.36648 18.06374 5247 ft 200 kts 290°
2026-04-26 17:27 59.37173 18.03903 4922 ft 196 kts 298°
2026-04-26 17:27 59.37732 18.01436 4578 ft 201 kts 297°
2026-04-26 17:28 59.38304 17.98897 4243 ft 205 kts 297°
2026-04-26 17:28 59.38876 17.96361 4073 ft 203 kts 297°
2026-04-26 17:28 59.39451 17.93822 4033 ft 203 kts 297°
2026-04-26 17:28 59.40010 17.91347 4023 ft 199 kts 297°
2026-04-26 17:29 59.40630 17.88934 4015 ft 198 kts 310°
2026-04-26 17:29 59.41361 17.87860 4023 ft 196 kts 340°
2026-04-26 17:29 59.43171 17.88050 4031 ft 202 kts
2026-04-26 17:29 59.44532 17.88533 3900 ft 197 kts
2026-04-26 17:30 59.45865 17.88992 3633 ft 191 kts
2026-04-26 17:30 59.47156 17.89454 3377 ft 187 kts
2026-04-26 17:30 59.48422 17.89913 3115 ft 182 kts
2026-04-26 17:30 59.49631 17.90354 2871 ft 170 kts
2026-04-26 17:31 59.50751 17.90763 2613 ft 157 kts
2026-04-26 17:31 59.51777 17.91135 2400 ft 144 kts
2026-04-26 17:31 59.52723 17.91478 2208 ft 132 kts
2026-04-26 17:31 59.53601 17.91796 2043 ft 126 kts
2026-04-26 17:32 59.54448 17.92101 1888 ft 130 kts
2026-04-26 17:32 59.55336 17.92423 1695 ft 128 kts
2026-04-26 17:32 59.56210 17.92740 1518 ft 128 kts
2026-04-26 17:32 59.57094 17.93061 1343 ft 130 kts
2026-04-26 17:33 59.57987 17.93385 1151 ft 131 kts
2026-04-26 17:33 59.58880 17.93710 961 ft 130 kts
2026-04-26 17:33 59.59764 17.94028 765 ft 130 kts
2026-04-26 17:34 59.61582 17.94699 431 ft 136 kts
2026-04-26 17:34 59.62501 17.95037 215 ft 131 kts
2026-04-26 17:34 59.63349 17.95324 121 ft 102 kts
2026-04-26 17:34 59.63863 17.95522 114 ft 42 kts 10°
2026-04-26 17:35 59.64133 17.95522 110 ft 38 kts 344°
2026-04-26 17:35 59.64315 17.95396 106 ft 22 kts 341°
2026-04-26 17:35 59.64424 17.95334 104 ft 14 kts 352°
2026-04-26 17:35 59.64525 17.95344 104 ft 16 kts
2026-04-26 17:36 59.64644 17.95389 104 ft 20 kts 11°
2026-04-26 17:36 59.64799 17.95451 106 ft 25 kts 10°
2026-04-26 17:36 59.64902 17.95486 108 ft 17 kts
2026-04-26 17:36 59.65014 17.95510 110 ft 16 kts 358°
2026-04-26 17:37 59.65124 17.95467 115 ft 16 kts 346°
2026-04-26 17:37 59.65247 17.95405 122 ft 23 kts 344°
2026-04-26 17:37 59.65400 17.95323 123 ft 24 kts 345°
2026-04-26 17:38 59.65669 17.95183 126 ft 5 kts 345°
2026-04-26 17:38 59.65724 17.95126 123 ft 11 kts 322°
2026-04-26 17:38 59.65738 17.94944 124 ft 19 kts 256°
2026-04-26 17:38 59.65701 17.94649 121 ft 23 kts 257°
2026-04-26 17:39 59.65664 17.94343 125 ft 23 kts 255°
2026-04-26 17:39 59.65621 17.94006 117 ft 28 kts 256°
2026-04-26 17:39 59.65569 17.93596 111 ft 31 kts 257°
2026-04-26 17:39 59.65529 17.93272 109 ft 22 kts 257°
2026-04-26 17:40 59.65490 17.92989 111 ft 21 kts 252°
2026-04-26 17:40 59.65476 17.92900 111 ft 21 kts 251°
2026-04-26 17:40 59.65342 17.92518 108 ft 20 kts 213°
2026-04-26 17:40 59.65249 17.92641 111 ft 19 kts 108°
2026-04-26 17:41 59.65205 17.92873 110 ft 16 kts 123°
2026-04-26 17:41 59.65156 17.92914 111 ft 2 kts 196°
2026-04-26 17:41 59.65139 17.92898 111 ft 3 kts 206°
2026-04-26 17:41 59.65133 17.92892 111 ft 0 kts 207°